Wind_Speed
19 19 18 17 16 15 14 13 12 12 12 11 11 10 10 9 9 8 7 6 5 4 4 4 4 5 5 5 6 6 7 8 8 9 9 10 11 12 13 13 14 15 16
22 21 20 19 18 17 16 15 15 14 13 12 12 11 11 10 10 9 8 7 6 6 5 5 5 6 6 7 7 7 8 9 9 10 10 11 12 13 14 15 16 16 17
23 22 22 21 20 19 18 18 17 16 15 14 13 13 12 12 11 10 9 8 8 7 7 6 7 7 8 8 8 9 9 10 10 11 11 12 13 14 15 16 17 17 18
25 24 24 23 22 21 20 19 19 18 17 16 15 14 14 13 12 11 10 10 9 9 8 8 8 9 9 9 10 10 10 11 12 12 13 14 15 16 17 17 18 18 19
27 26 26 25 24 23 22 21 20 19 18 18 17 16 15 14 14 13 12 11 11 10 10 10 10 10 10 10 11 11 12 12 13 13 14 15 16 17 17 18 18 19 19
28 28 27 26 26 25 24 23 22 21 20 19 18 18 16 16 15 14 14 13 12 12 12 12 12 12 12 11 12 12 13 14 14 15 15 16 17 18 18 19 19 20 20
29 29 29 28 27 26 25 25 24 23 22 21 20 19 18 17 17 16 15 14 14 14 13 13 13 13 13 13 13 14 14 15 15 16 16 17 18 18 19 20 21 21 22
31 31 31 31 29 29 28 26 26 24 24 23 22 21 20 19 18 17 17 16 16 15 15 14 14 14 14 14 15 15 16 16 16 17 17 18 19 20 20 21 22 23 23
34 33 33 32 32 31 29 29 28 26 26 25 24 23 22 21 20 19 18 18 17 17 16 16 16 15 16 16 16 17 17 17 17 18 18 19 20 21 22 22 23 24 24
36 35 35 34 33 33 32 30 29 28 28 27 26 24 23 23 21 20 20 19 19 18 18 17 17 17 17 17 18 18 18 18 19 19 20 21 21 22 23 24 24 25 25
37 37 37 36 35 34 34 32 31 30 29 29 27 26 25 24 23 22 21 20 20 20 19 18 19 19 19 19 19 19 20 20 21 21 22 22 23 24 24 25 25 26 26
38 38 38 38 37 36 35 34 33 32 30 29 29 28 27 26 25 24 23 22 21 21 20 20 20 20 20 20 20 21 21 21 22 22 23 24 24 25 25 26 26 27 27
39 39 39 39 39 37 36 36 35 34 32 30 30 30 29 28 27 26 25 24 24 23 22 22 22 22 22 22 22 22 22 23 23 24 24 25 25 25 26 26 27 27 28
38 39 40 40 39 38 37 37 36 35 34 32 30 30 30 29 29 28 27 26 25 24 24 24 24 24 24 24 24 24 24 24 25 25 25 26 26 26 26 27 27 28 28
39 39 39 39 40 39 38 38 36 37 37 34 33 31 30 30 30 29 28 27 27 26 26 25 25 25 26 25 25 26 26 26 26 26 26 27 27 27 27 28 28 29 29
39 39 39 39 38 39 39 39 38 37 37 36 36 33 31 31 31 31 29 28 28 28 28 27 27 27 27 27 27 27 27 27 27 27 28 28 28 28 28 29 29 30 30
40 40 40 40 39 39 40 39 39 38 38 38 37 36 34 32 31 31 30 30 29 29 29 29 29 29 29 29 29 29 29 29 29 29 29 29 29 29 29 30 30 31 31
40 40 40 40 40 39 40 40 39 39 39 38 38 37 36 35 32 31 32 32 31 31 31 30 30 30 30 30 30 30 30 29 29 30 30 30 30 30 31 31 31 32 32
39 39 39 40 40 41 40 40 40 40 40 39 39 38 37 36 34 33 33 33 33 33 32 31 31 31 31 31 31 30 30 30 30 30 31 31 31 32 32 32 32 33 33
38 39 38 39 40 41 42 41 40 40 40 40 39 38 37 37 36 35 34 33 34 34 34 33 33 33 32 32 32 32 32 31 31 31 32 32 33 33 33 33 33 34 34
35 38 38 38 38 40 41 41 40 41 41 41 40 39 38 37 37 36 35 34 34 34 34 34 34 34 34 33 33 33 33 32 32 32 32 33 33 33 33 33 33 34 35
34 36 39 38 38 39 40 40 40 41 41 41 41 40 40 39 37 36 36 36 34 34 35 36 35 34 34 34 34 33 33 33 33 33 33 33 34 34 33 33 33 34 35
34 35 36 38 38 38 38 40 40 40 41 41 41 42 41 41 40 39 37 37 37 36 34 35 36 35 34 34 34 34 33 33 33 33 33 34 34 34 34 33 34 34 35
34 34 35 37 37 36 37 39 40 40 41 42 41 41 42 43 41 40 38 37 37 37 36 35 35 36 35 34 34 34 34 33 33 34 34 34 34 34 34 34 34 34 35
35 35 35 35 36 37 38 38 39 39 39 40 41 41 42 42 41 40 40 39 38 38 38 37 36 36 36 35 35 34 35 34 34 35 34 34 34 35 35 35 34 34 35
35 35 35 35 35 35 36 38 38 39 39 40 40 40 40 41 41 41 41 41 40 39 39 38 36 36 36 36 35 35 35 35 35 35 34 34 34 35 35 35 34 34 35
Wind_Direction
229 230 229 227 226 224 222 222 223 223 222 218 217 216 215 216 218 220 224 229 239 250 259 270 285 295 301 306 311 313 316 319 322 325 326 326 326 325 325 324 323 321 321
230 230 230 228 227 226 225 224 224 225 226 226 223 222 222 222 223 226 231 237 244 251 260 271 281 291 297 300 303 306 309 312 316 318 319 320 321 321 320 320 319 318 318
232 231 230 229 227 226 226 226 226 226 228 229 230 228 227 227 227 230 235 240 246 252 260 271 280 289 295 297 297 299 302 305 308 310 312 314 315 316 316 316 316 316 316
232 232 231 230 229 227 226 227 227 228 229 231 232 232 229 228 230 234 238 244 249 255 261 270 279 287 292 295 296 297 300 302 303 305 307 309 310 312 314 314 315 315 314
232 232 232 230 229 229 229 229 229 229 230 231 232 232 232 232 234 237 240 245 252 257 263 270 277 283 288 292 294 295 298 300 301 302 305 306 308 310 312 313 314 313 313
233 232 231 230 229 229 230 230 231 230 231 231 232 233 235 237 238 239 242 247 254 259 263 269 274 279 285 289 291 294 297 299 299 301 303 305 307 309 311 312 312 312 312
232 232 231 230 230 230 230 231 231 231 230 231 233 235 237 238 240 242 244 249 255 259 265 269 273 277 282 286 289 292 296 297 298 299 301 303 305 307 309 310 310 310 310
231 231 231 231 230 230 230 232 233 232 231 232 234 235 237 240 241 243 246 250 255 259 264 269 272 275 279 284 287 291 293 295 296 298 300 302 304 305 307 308 309 309 309
231 230 230 231 231 231 232 232 233 233 233 234 234 236 237 239 241 244 247 251 255 259 263 268 270 273 277 281 285 288 291 293 294 296 299 301 303 304 305 307 308 308 308
231 230 230 231 231 232 233 233 234 234 235 235 235 237 239 240 242 245 249 252 255 259 262 266 269 272 275 278 283 286 288 291 293 295 297 299 301 302 304 305 306 307 307
230 230 231 232 232 232 233 234 234 234 234 235 236 238 240 242 243 246 249 252 255 258 261 266 268 271 275 278 281 285 287 289 292 294 296 297 299 301 302 303 305 306 307
230 229 230 232 233 233 233 234 234 234 234 235 237 239 240 241 244 246 249 253 255 258 261 265 268 270 274 278 281 283 286 288 291 293 294 296 297 299 301 302 304 306 306
229 229 229 231 233 233 234 234 233 234 234 235 238 239 240 242 244 246 249 253 256 258 262 265 268 271 274 277 280 282 284 287 290 292 294 295 297 298 299 301 303 305 306
229 229 229 231 233 234 235 234 234 234 234 236 237 239 240 241 244 246 249 253 256 258 261 265 268 271 274 277 279 281 284 286 289 291 292 295 296 297 298 300 302 304 304
229 229 230 231 233 235 236 236 235 236 237 237 239 240 241 242 243 245 248 252 255 258 261 264 268 271 273 276 279 281 283 285 288 290 291 293 295 295 297 299 301 302 302
228 230 231 232 233 235 236 236 237 237 238 238 239 241 241 243 244 245 248 252 255 258 262 265 268 270 272 275 277 279 281 284 286 288 290 292 293 294 296 298 300 301 302
228 229 231 232 234 235 236 236 236 237 238 239 241 241 242 244 246 248 249 253 256 260 262 265 268 270 272 274 277 279 281 282 285 287 289 290 292 293 295 297 298 299 301
228 229 231 232 234 235 235 236 236 237 238 240 241 243 243 244 246 248 250 253 256 260 263 265 267 270 273 274 276 278 281 283 284 286 288 290 291 292 293 294 296 298 299
228 229 232 234 234 235 234 235 235 237 238 240 242 243 245 246 247 249 252 254 257 260 263 265 268 271 273 274 275 277 280 282 285 286 287 289 289 290 292 293 295 297 298
228 229 232 234 235 235 235 236 236 236 238 240 242 243 245 247 249 252 254 256 258 260 263 266 269 271 273 274 275 277 279 281 284 285 286 287 289 291 292 293 295 296 297
230 230 230 233 234 235 234 236 237 237 238 240 241 243 245 247 250 253 256 257 258 261 263 266 269 270 271 273 274 276 278 280 282 284 286 288 290 292 293 293 295 296 298
231 232 234 234 235 235 235 236 237 239 240 241 242 243 246 248 250 253 255 257 259 262 263 265 268 270 270 271 273 275 277 278 281 283 285 287 289 291 293 295 296 297 299
233 233 234 233 236 237 238 237 239 240 241 242 243 244 246 249 250 253 255 257 258 261 265 265 265 267 269 270 272 274 276 277 280 282 284 287 289 292 293 295 297 298 300
235 235 235 235 236 238 239 239 240 242 242 242 245 246 246 248 251 254 255 257 258 259 261 264 265 266 268 269 271 274 276 278 280 282 284 287 289 291 293 294 296 297 298
238 238 239 238 238 238 240 241 241 242 244 243 245 247 248 249 251 254 257 256 258 260 261 263 264 265 266 268 271 273 274 277 280 282 285 286 288 290 292 294 295 296 297
240 240 240 240 240 239 240 241 243 244 245 246 246 247 249 250 252 254 257 258 259 261 263 264 265 265 265 269 271 274 275 277 280 282 283 285 287 289 291 294 295 296 296
Height
5868 5869 5871 5872 5873 5874 5875 5876 5877 5878 5879 5879 5880 5880 5881 5881 5882 5882 5882 5882 5882 5882 5881 5881 5880 5880 5879 5879 5878 5877 5876 5875 5874 5873 5872 5871 5870 5868 5867 5866 5864 5862 5860
5865 5866 5868 5869 5871 5872 5873 5874 5875 5876 5877 5878 5878 5879 5879 5880 5880 5880 5881 5881 5880 5880 5880 5880 5879 5879 5878 5877 5876 5876 5875 5874 5873 5872 5870 5869 5868 5867 5865 5864 5862 5860 5858
5861 5863 5864 5866 5868 5869 5870 5872 5873 5874 5875 5876 5876 5877 5877 5878 5878 5879 5879 5879 5879 5879 5879 5878 5878 5877 5876 5876 5875 5874 5873 5872 5871 5870 5869 5867 5866 5864 5863 5861 5859 5857 5855
5857 5859 5861 5863 5864 5866 5867 5869 5870 5871 5872 5873 5874 5875 5875 5876 5876 5877 5877 5877 5877 5877 5877 5876 5876 5875 5875 5874 5873 5872 5871 5870 5869 5868 5866 5865 5863 5862 5860 5859 5857 5855 5853
5853 5855 5857 5859 5861 5862 5864 5866 5867 5868 5869 5870 5871 5872 5873 5874 5874 5875 5875 5875 5875 5875 5875 5874 5874 5873 5872 5872 5871 5870 5869 5868 5866 5865 5864 5862 5861 5859 5857 5855 5854 5852 5849
5848 5850 5852 5855 5857 5859 5860 5862 5863 5865 5866 5867 5868 5869 5870 5871 5872 5872 5872 5872 5873 5873 5872 5872 5871 5871 5870 5869 5868 5867 5866 5865 5864 5862 5861 5859 5858 5856 5854 5852 5850 5848 5846
5843 5845 5848 5850 5852 5854 5856 5858 5860 5861 5863 5864 5865 5866 5867 5868 5869 5869 5869 5870 5870 5870 5869 5869 5869 5868 5868 5867 5866 5865 5864 5862 5861 5859 5858 5856 5854 5853 5851 5849 5847 5844 5842
5837 5840 5842 5845 5847 5849 5852 5853 5855 5857 5859 5860 5861 5862 5864 5865 5865 5866 5866 5866 5866 5867 5866 5866 5866 5865 5865 5864 5863 5862 5860 5859 5858 5856 5854 5853 5851 5849 5847 5845 5843 5840 5838
5831 5833 5836 5839 5842 5844 5846 5848 5850 5852 5854 5856 5857 5859 5860 5861 5862 5862 5862 5863 5863 5863 5863 5863 5862 5862 5861 5860 5859 5858 5857 5856 5854 5852 5851 5849 5847 5845 5843 5841 5838 5836 5833
5824 5827 5830 5833 5836 5838 5840 5843 5845 5847 5849 5851 5853 5854 5856 5857 5857 5858 5858 5859 5859 5859 5859 5859 5859 5858 5858 5857 5856 5855 5853 5852 5850 5849 5847 5845 5843 5841 5839 5836 5834 5831 5829
5817 5820 5823 5826 5829 5832 5834 5837 5840 5841 5843 5845 5848 5849 5851 5852 5853 5854 5854 5855 5855 5855 5855 5855 5855 5854 5853 5853 5852 5850 5849 5848 5846 5844 5843 5841 5839 5837 5834 5832 5829 5827 5824
5809 5813 5816 5819 5822 5825 5828 5831 5834 5835 5837 5839 5842 5844 5846 5847 5848 5849 5850 5850 5851 5851 5851 5850 5850 5850 5849 5848 5847 5846 5845 5843 5842 5840 5838 5836 5834 5832 5829 5827 5824 5821 5819
5801 5805 5808 5812 5815 5818 5821 5824 5827 5829 5831 5834 5836 5838 5840 5841 5843 5844 5845 5845 5846 5846 5846 5846 5846 5845 5845 5844 5843 5841 5840 5838 5837 5835 5833 5831 5829 5826 5824 5822 5819 5816 5813
5793 5797 5801 5804 5808 5811 5814 5817 5821 5823 5825 5828 5829 5831 5833 5835 5837 5838 5839 5840 5841 5841 5841 5841 5841 5840 5839 5839 5837 5836 5835 5833 5831 5830 5828 5826 5824 5821 5819 5816 5813 5811 5807
5786 5790 5793 5797 5801 5804 5807 5810 5813 5816 5819 5821 5823 5825 5828 5829 5831 5832 5833 5834 5835 5836 5836 5836 5835 5835 5834 5833 5832 5831 5829 5828 5826 5824 5822 5820 5818 5816 5813 5811 5808 5805 5801
5778 5782 5786 5789 5793 5796 5800 5803 5806 5809 5811 5814 5816 5819 5821 5822 5824 5826 5827 5828 5829 5829 5830 5829 5829 5829 5828 5827 5826 5825 5823 5822 5820 5818 5816 5814 5812 5810 5807 5804 5802 5798 5795
5770 5774 5778 5782 5785 5788 5792 5795 5798 5802 5804 5807 5809 5812 5814 5815 5817 5819 5821 5822 5822 5823 5823 5823 5823 5822 5822 5821 5819 5818 5817 5815 5813 5812 5810 5808 5806 5803 5801 5798 5795 5792 5788
5762 5766 5770 5774 5777 5780 5784 5787 5790 5794 5797 5799 5802 5804 5807 5809 5810 5812 5814 5815 5816 5816 5816 5816 5816 5816 5815 5814 5813 5812 5810 5808 5807 5805 5803 5801 5799 5796 5794 5791 5788 5785 5781
5754 5758 5762 5766 5769 5772 5776 5779 5782 5786 5789 5792 5794 5797 5799 5802 5803 5804 5806 5808 5808 5809 5809 5809 5809 5809 5808 5807 5806 5805 5803 5802 5800 5798 5796 5794 5791 5789 5786 5784 5781 5777 5774
5746 5751 5754 5757 5761 5764 5767 5771 5774 5777 5781 5784 5787 5789 5792 5794 5796 5797 5798 5800 5801 5801 5802 5802 5801 5801 5800 5800 5799 5798 5796 5794 5793 5790 5788 5786 5784 5782 5779 5776 5773 5770 5766
5739 5743 5746 5749 5753 5756 5760 5763 5766 5769 5773 5776 5778 5781 5784 5786 5788 5789 5791 5792 5792 5793 5794 5794 5794 5793 5793 5792 5791 5790 5789 5787 5785 5783 5781 5779 5777 5774 5771 5769 5766 5762 5759
5732 5735 5738 5742 5745 5748 5751 5755 5758 5761 5764 5767 5770 5773 5775 5778 5779 5781 5783 5784 5785 5785 5785 5786 5786 5785 5785 5784 5784 5782 5781 5781 5778 5776 5774 5772 5769 5767 5764 5762 5758 5755 5751
5724 5727 5731 5733 5737 5740 5743 5746 5750 5753 5756 5759 5762 5765 5767 5769 5771 5773 5774 5775 5776 5776 5777 5777 5777 5777 5777 5776 5775 5775 5773 5773 5771 5770 5767 5764 5762 5760 5757 5754 5751 5747 5743
5718 5721 5723 5726 5729 5732 5735 5738 5742 5745 5747 5750 5753 5756 5759 5760 5762 5764 5766 5766 5767 5768 5768 5769 5768 5768 5768 5768 5767 5766 5765 5764 5763 5762 5760 5757 5755 5752 5749 5747 5743 5740 5735
5711 5714 5717 5719 5722 5725 5728 5731 5734 5736 5739 5742 5745 5748 5750 5752 5754 5755 5756 5757 5758 5759 5760 5760 5760 5760 5760 5760 5759 5758 5757 5756 5755 5753 5752 5750 5747 5745 5742 5739 5736 5732 5728
5704 5707 5710 5712 5715 5717 5720 5723 5726 5728 5731 5733 5736 5739 5741 5743 5745 5746 5748 5749 5749 5750 5751 5751 5752 5751 5751 5751 5751 5750 5749 5748 5747 5745 5744 5742 5740 5737 5734 5731 5728 5724 5720